SWAS

Last updated on Mon Sep 21 2026 00:03:33 GMT+0000 (Coordinated Universal Time)

1 25560U 98071A 26263.48174240 .00002272 00000+0 14544-3 0 9995 2 25560 69.8974 341.6765 0002864 124.1350 236.0087 15.10125843511655
UTC large
Height (km)
Speed (km/s)
/
Latitude / Longitude
Inclination (degrees)
Orbital Period (minutes)
Azimuth
Elevation
Range (km)
Doppler Factor

Next 0 passes for location: London (51.5072 / 0.1276)

No passes found over London.
SWAS